[[{"header":{"parameterUnit":"m.s-1","parameterCategory":1,"la1":30.2991,"la2":30.254,"lo1":-89.0895,"lo2":-89.0444,"dy":0.0017,"dx":0.0017,"nx":28,"ny":28,"refTime":"2023-07-29T03:00:00:Z","depth":0,"parameterNumber":2,"parameterNumberName":"U-component_of_WINDS"},"data":[0,0,0,0,0,0,0,0,0,0,0,0,0,0,0,0,0,0,0,0,0,0,0,0,0,0,0,0,0,0,0,0,0,0,0,0,0,0,0,0,0,0,0,0,0,0,0,0,0,0,0,0,0,0,0,0,0,0,3.1514,3.1514,0,3.1555,3.1556,3.1556,3.1472,3.1469,3.1466,3.1464,3.1511,3.1515,3.1519,0,0,0,0,0,0,0,0,0,0,0,0,0,3.1367,3.137,3.1514,3.1514,3.1515,3.1555,3.1556,3.1556,3.1472,3.1469,3.1465,3.1462,3.151,3.1514,3.1519,0,0,0,0,0,0,0,0,0,0,0,0,0,3.1422,3.1371,3.1514,3.1477,3.1475,3.1555,3.1556,3.1557,3.1473,3.1469,3.1465,3.1461,3.1508,3.1514,3.152,3.1639,0,0,3.1537,3.154,0,0,0,0,0,0,0,0,3.1419,3.1427,3.1482,3.148,3.1477,3.1504,3.1521,3.1584,3.1474,3.1474,3.1463,3.1459,3.1512,3.1518,3.1535,3.1641,3.1643,3.1538,3.1541,3.1544,3.1545,0,0,0,0,0,0,0,3.1415,3.1425,3.153,3.1483,3.148,3.1461,3.1464,3.1533,3.1516,3.1473,3.1467,3.1473,3.151,3.1529,3.1535,3.1644,3.1538,3.1543,3.1546,3.1548,3.1852,3.1857,0,0,0,0,0,0,3.1415,3.1422,3.1529,3.1531,3.1437,3.1467,3.1471,3.15,3.1515,3.1513,3.1477,3.1469,3.1521,3.1528,3.1536,3.1678,3.1544,3.1549,3.1552,3.1848,3.1853,3.1858,0,0,0,0,0,0,3.1412,3.1425,3.1527,3.1475,3.1487,3.1474,3.1507,3.1503,3.1521,3.1517,3.1515,3.1499,3.1518,3.1528,3.1614,3.1679,3.1552,3.1557,3.1842,3.1849,3.1856,3.1962,0,0,0,0,0,0,3.1408,3.1425,3.1469,3.1477,3.149,3.1603,3.1511,3.1506,3.1531,3.1522,3.1538,3.1536,3.1516,3.1606,3.162,3.1684,3.1561,3.1836,3.1845,3.1854,3.1953,3.1972,3.1988,0,0,0,0,0,3.1403,3.1497,3.1471,3.1484,3.1544,3.1607,3.1614,3.1587,3.1537,3.1582,3.1579,3.1536,3.1669,3.1615,3.163,3.1698,3.1832,3.1843,3.1853,3.1945,3.1968,3.1988,0,0,0,0,0,0,3.1498,3.1498,3.1469,3.1568,3.1588,3.1592,3.1648,3.1613,3.1648,3.1638,3.1605,3.161,3.1703,3.1708,3.1648,3.1815,3.1743,3.1756,3.1808,3.183,3.1847,3.1844,3.1566,0,0,0,0,0,3.153,3.1579,3.1577,3.1665,3.1676,3.1661,3.1687,3.1665,3.1685,3.1693,3.1697,3.1719,3.1766,3.1798,3.1841,3.1954,3.1957,3.2008,3.2025,3.204,3.2053,3.2115,3.2138,3.1892,3.1892,3.1892,0,0,3.1598,3.1604,3.1637,3.1684,3.1697,3.1751,3.1668,3.1728,3.1768,3.1702,3.1783,3.1788,3.1811,3.1911,3.1955,3.1919,3.2121,3.2053,3.2065,3.2069,3.2128,3.2151,3.2172,3.1899,3.1898,3.1897,0,0,3.1748,3.1756,3.1831,3.1846,3.1866,3.1855,3.1874,3.1884,3.1884,3.1964,3.1917,3.1965,3.2046,3.2065,3.2086,3.2246,3.2208,3.2261,3.2354,3.2414,3.2434,3.2451,3.251,3.2531,3.2273,3.2274,3.2274,0,3.1829,3.1906,3.1875,3.1938,3.1961,3.1904,3.1981,3.1997,3.2031,3.205,3.2008,3.211,3.2121,3.2226,3.2265,3.2283,3.2305,3.2259,3.2433,3.245,3.2466,3.2521,3.2543,3.228,3.2279,3.2279,3.2278,0,3.2007,3.2061,3.212,3.2153,3.2183,3.2253,3.2234,3.2268,3.2244,3.2239,3.2323,3.2335,3.238,3.2404,3.2381,3.2506,3.2483,3.2438,3.2365,3.2496,3.2548,3.2569,3.2289,3.2287,3.2285,3.2283,0,0,3.2217,3.2232,3.2255,3.227,3.2289,3.2332,3.24,3.2443,3.2475,3.2501,3.2559,3.263,3.2589,3.2612,3.2592,3.2645,3.2773,3.2594,3.2594,3.2628,3.2915,3.2949,3.2974,3.2748,3.2752,3.2755,3.2913,0,3.2367,3.2483,3.2457,3.2573,3.2624,3.2571,3.2631,3.2651,3.2648,3.2693,3.269,3.2742,3.2683,3.2697,3.2747,3.2747,3.2831,3.2735,3.2804,3.2807,3.2801,3.3001,3.3037,3.3186,3.2933,3.2937,3.2939,0,3.2556,3.2589,3.271,3.2722,3.2743,3.2797,3.2836,3.2879,3.2901,3.2895,3.2922,3.2892,3.2962,3.2888,3.2986,3.2922,3.2949,3.2953,3.2959,3.2965,3.2882,3.3014,3.3233,3.3256,3.2971,3.2968,3.2966,0,3.27,3.2774,3.2856,3.2871,3.2887,3.2927,3.2936,3.2953,3.2982,3.3016,3.3035,3.3078,3.3102,3.3137,3.312,3.3067,3.3222,3.3146,3.3222,3.3222,3.3257,3.3255,3.3484,3.3273,3.3273,3.3272,3.3272,0,3.287,3.2947,3.2921,3.2971,3.3056,3.3027,3.3112,3.3115,3.3132,3.3184,3.3141,3.3191,3.3165,3.3214,3.3201,3.3286,3.3297,3.3296,3.3292,3.33,3.3301,3.3318,3.3308,3.3278,3.3277,3.3276,3.3275,0,3.3044,3.303,3.3116,3.3125,3.3129,3.3191,3.3199,3.3248,3.3242,3.3309,3.3323,3.3315,3.337,3.3357,3.3417,3.3409,3.3516,3.3499,3.3509,3.3505,3.3582,3.3576,3.3831,3.3864,3.363,3.3632,3.3634,0,3.3155,3.3212,3.3227,3.3258,3.327,3.3321,3.3349,3.3324,3.3356,3.3387,3.3433,3.3484,3.3524,3.3616,3.3617,3.3664,3.3648,3.3734,3.3655,3.3662,3.3651,3.3648,3.3655,3.375,3.3753,3.3755,3.3757,0,3.3352,3.3343,3.3385,3.3426,3.3461,3.3492,3.352,3.3548,3.3525,3.3564,3.3619,3.3651,3.3713,3.3766,3.3809,3.3821,3.3787,3.3782,3.3802,3.3812,3.3816,3.3817,3.3553,3.3776,3.3774,3.3773,3.3772,3.3771,3.3499,3.3548,3.3567,3.3616,3.3634,3.3661,3.3707,3.3708,3.3753,3.3801,3.3784,3.3849,3.3872,3.3926,3.3943,3.3995,3.3963,3.3992,3.3999,3.4007,3.4018,3.3807,3.4003,3.4002,3.4002,3.4001,3.4001,0,3.3696,3.3705,3.3751,3.379,3.383,3.3793,3.3822,3.3858,3.3915,3.3938,3.3979,3.4044,3.4096,3.4101,3.415,3.4191,3.4176,3.4205,3.4202,3.4206,3.4043,3.4021,3.4215,3.4215,3.4215,3.4215,3.4215,3.4215,3.3803,3.3885,3.3878,3.397,3.3979,3.4041,3.4061,3.4087,3.4106,3.418,3.4222,3.4225,3.4242,3.4293,3.4339,3.434,3.4361,3.4395,3.439,3.4238,3.4217,3.4196,3.4176,3.44,3.44,3.4549,3.455,3.4551]},{"header":{"parameterUnit":"m.s-1","parameterCategory":1,"la1":30.2991,"la2":30.254,"lo1":-89.0895,"lo2":-89.0444,"dy":0.0017,"dx":0.0017,"nx":28,"ny":28,"refTime":"2023-07-29T03:00:00:Z","depth":0,"parameterNumber":3,"parameterNumberName":"V-component_of_WINDS"},"data":[0,0,0,0,0,0,0,0,0,0,0,0,0,0,0,0,0,0,0,0,0,0,0,0,0,0,0,0,0,0,0,0,0,0,0,0,0,0,0,0,0,0,0,0,0,0,0,0,0,0,0,0,0,0,0,0,0,0,3.8372,3.8375,0,3.8666,3.8669,3.8673,3.8737,3.8735,3.8732,3.873,3.9029,3.9039,3.9048,0,0,0,0,0,0,0,0,0,0,0,0,0,3.7862,3.7871,3.8371,3.8375,3.8379,3.8666,3.867,3.8674,3.8737,3.8734,3.8732,3.8729,3.9026,3.9037,3.9049,0,0,0,0,0,0,0,0,0,0,0,0,0,3.8112,3.7874,3.8371,3.8445,3.8455,3.8665,3.867,3.8675,3.8738,3.8734,3.8731,3.8728,3.9022,3.9036,3.9051,3.9207,0,0,3.9096,3.9103,0,0,0,0,0,0,0,0,3.8098,3.8131,3.843,3.844,3.8451,3.8661,3.86,3.8853,3.8738,3.863,3.873,3.8727,3.8909,3.8933,3.8995,3.9221,3.9234,3.9098,3.9107,3.9113,3.9117,0,0,0,0,0,0,0,3.8081,3.8119,3.8488,3.8435,3.8447,3.8463,3.8495,3.8648,3.8784,3.8639,3.8645,3.8679,3.8914,3.8981,3.9003,3.9238,3.9097,3.9111,3.912,3.9126,3.9608,3.9612,0,0,0,0,0,0,3.8051,3.8104,3.8478,3.8497,3.8263,3.8475,3.8511,3.8597,3.8782,3.8808,3.8681,3.8681,3.8957,3.8985,3.9013,3.921,3.9113,3.9127,3.9136,3.9605,3.9609,3.9614,0,0,0,0,0,0,3.8039,3.8083,3.8467,3.8302,3.8352,3.8487,3.8584,3.8605,3.8671,3.8814,3.8838,3.8724,3.8955,3.8992,3.9159,3.9221,3.9134,3.9147,3.96,3.9606,3.9611,3.9603,0,0,0,0,0,0,3.8024,3.8079,3.814,3.8303,3.836,3.8608,3.8587,3.8613,3.8697,3.8699,3.8861,3.8885,3.8956,3.9136,3.9174,3.924,3.9159,3.9595,3.9603,3.961,3.9598,3.9608,3.9616,0,0,0,0,0,3.8006,3.8125,3.8143,3.8188,3.844,3.8611,3.8644,3.8724,3.8702,3.8765,3.8856,3.888,3.9208,3.9153,3.9196,3.9267,3.9592,3.9601,3.9609,3.9594,3.9606,3.9615,0,0,0,0,0,0,3.7964,3.8147,3.8169,3.8344,3.8462,3.8622,3.8703,3.8734,3.8859,3.8856,3.8949,3.8985,3.9146,3.9223,3.9159,3.9429,3.9399,3.9416,3.9373,3.9385,3.9394,3.9372,3.9171,0,0,0,0,0,3.7975,3.81,3.8253,3.8393,3.8451,3.8567,3.8644,3.8696,3.8821,3.8871,3.8975,3.9095,3.9225,3.9309,3.9437,3.9609,3.9646,3.968,3.9688,3.9695,3.9709,3.9807,3.9825,3.9642,3.9642,3.9642,0,0,3.8,3.8115,3.8188,3.8387,3.8485,3.8612,3.8608,3.8742,3.8837,3.8891,3.9056,3.9136,3.9276,3.9446,3.9527,3.9516,3.9768,3.9706,3.971,3.9721,3.9818,3.9835,3.985,3.9648,3.9647,3.9646,0,0,3.8109,3.8209,3.8337,3.8435,3.8583,3.866,3.869,3.8846,3.8902,3.9069,3.9113,3.9226,3.9449,3.9547,3.9626,3.9775,3.9801,3.9813,3.9859,3.9954,3.9969,3.9982,4.0036,4.0054,3.9827,3.9827,3.9827,0,3.8121,3.8315,3.8399,3.8532,3.8619,3.8675,3.8805,3.8896,3.9077,3.9136,3.9121,3.9402,3.95,3.9695,3.9732,3.9793,3.9832,3.9796,3.996,3.9974,3.9988,4.004,4.006,3.9828,3.9828,3.9828,3.9828,0,3.8322,3.8456,3.8541,3.8717,3.8813,3.8944,3.9048,3.9135,3.9179,3.9257,3.9426,3.9546,3.97,3.975,3.9792,3.9952,3.994,3.9941,3.9913,4.0004,4.0055,4.0076,3.9829,3.9828,3.9828,3.9828,0,0,3.8413,3.8635,3.8665,3.8746,3.8914,3.9019,3.9152,3.9304,3.9378,3.9501,3.9616,3.9803,3.9806,3.9896,3.9951,4.0034,4.0145,4.0025,4.003,4.0044,4.0329,4.0328,4.035,4.0163,4.0168,4.0171,4.0318,0,3.8544,3.8786,3.8866,3.9067,3.9192,3.9248,3.9364,3.948,3.9556,3.9673,3.9757,3.9889,3.9882,3.9937,4.0022,4.0114,4.0204,4.0104,4.0271,4.0276,4.0236,4.0377,4.0376,4.0509,4.0338,4.0342,4.0344,0,3.8729,3.8857,3.9071,3.9225,3.928,3.9384,3.953,3.9641,3.9773,3.9823,3.9924,3.9973,4.0115,4.0078,4.0274,4.0205,4.0278,4.0333,4.0341,4.036,4.0316,4.0401,4.0553,4.0573,4.0376,4.0374,4.0371,0,3.8775,3.9001,3.9159,3.9227,3.9409,3.9481,3.9561,3.969,3.9776,3.9904,3.9961,4.0103,4.018,4.0289,4.0374,4.0339,4.0564,4.0534,4.061,4.0608,4.0655,4.0651,4.0822,4.07,4.07,4.0699,4.0699,0,3.8914,3.9043,3.9183,3.928,3.9426,3.9517,3.9659,3.9741,3.9856,3.997,4.0025,4.0131,4.0237,4.0356,4.0424,4.0577,4.0611,4.0656,4.0672,4.0652,4.0646,4.0702,4.0695,4.0705,4.0703,4.0702,4.0701,0,3.8991,3.909,3.9266,3.9425,3.9468,3.9569,3.9706,3.9802,3.9881,4.0024,4.0063,4.0187,4.0331,4.0427,4.0609,4.0655,4.0822,4.0836,4.0778,4.0787,4.0858,4.085,4.1071,4.1105,4.0958,4.096,4.0961,0,3.9073,3.9174,3.9345,3.9426,3.9506,3.9636,3.9725,3.9818,3.9909,4.0068,4.0145,4.0293,4.0416,4.0643,4.0748,4.0889,4.0908,4.0975,4.0929,4.0906,4.091,4.0904,4.0915,4.0983,4.0984,4.0985,4.0985,0,3.9209,3.9254,3.9381,3.9526,3.9632,3.975,3.9869,3.9931,4.0045,4.0144,4.0293,4.0388,4.0577,4.0723,4.0873,4.0954,4.099,4.0999,4.1025,4.1005,4.0968,4.099,4.0799,4.0994,4.0993,4.0992,4.0992,4.0992,3.9293,3.9385,3.9521,3.9661,3.9761,3.9871,3.997,4.0062,4.0188,4.035,4.0397,4.0551,4.0682,4.0889,4.0972,4.1094,4.1088,4.1124,4.1133,4.1141,4.1142,4.0947,4.1122,4.1122,4.1122,4.1121,4.1121,0,3.9433,3.9523,3.9651,3.9817,3.9927,3.9952,4.0085,4.0175,4.0311,4.0431,4.0552,4.0723,4.0865,4.0983,4.113,4.1205,4.1225,4.124,4.1236,4.1255,4.1139,4.1103,4.1222,4.1222,4.1222,4.1222,4.1222,4.1222,3.9518,3.9678,3.9738,3.9947,4.0037,4.019,4.0264,4.0366,4.0463,4.0652,4.0771,4.0847,4.0967,4.1123,4.1254,4.1285,4.1337,4.135,4.1384,4.1274,4.1262,4.1252,4.1219,4.136,4.136,4.149,4.1491,4.1492]}]]